This is the latest recevied weather packets stored in our database for station/object KD7CTY. If no packets are shown the sender has not sent any weather packets the latest 10 day(s).
| Time | Temp. | Humidity | Pressure | Rain* | Wind** | Luminosity | Snow |
|---|---|---|---|---|---|---|---|
| 1777521791 | 12.78° C | 76% | 1021.3 hPa | 0 mm | - | 0 W/m² | - |
| 1777521487 | 13.33° C | 76% | 1021.2 hPa | 0 mm | - | 0 W/m² | - |
| 1777521184 | 13.33° C | 75% | 1021.1 hPa | 0 mm | - | 0 W/m² | - |
| 1777520881 | 12.78° C | 77% | 1021.2 hPa | 0 mm | - | 0 W/m² | - |
| 1777520578 | 13.33° C | 75% | 1021.2 hPa | 0 mm | - | 0 W/m² | - |
| 1777520275 | 13.33° C | 76% | 1020.9 hPa | 0 mm | - | 0 W/m² | - |
| 1777519973 | 13.89° C | 75% | 1021 hPa | 0 mm | - | 0 W/m² | - |
| 1777519670 | 13.89° C | 73% | 1020.9 hPa | 0 mm | - | 0 W/m² | - |
| 1777519366 | 13.89° C | 74% | 1020.8 hPa | 0 mm | - | 1 W/m² | - |
| 1777519063 | 14.44° C | 73% | 1020.8 hPa | 0 mm | - | 3 W/m² | - |
| 1777518759 | 14.44° C | 72% | 1020.9 hPa | 0 mm | - | 4 W/m² | - |
| 1777518455 | 14.44° C | 71% | 1020.7 hPa | 0 mm | - | 7 W/m² | - |
| 1777518151 | 15° C | 71% | 1020.9 hPa | 0 mm | - | 10 W/m² | - |
| 1777517847 | 15.56° C | 68% | 1020.9 hPa | 0 mm | - | 13 W/m² | - |
| 1777517543 | 16.11° C | 67% | 1021 hPa | 0 mm | - | 15 W/m² | - |
| 1777517242 | 16.11° C | 64% | 1020.9 hPa | 0 mm | - | 19 W/m² | - |
| 1777516941 | 16.67° C | 63% | 1020.9 hPa | 0 mm | - | 23 W/m² | - |
| 1777516636 | 17.22° C | 61% | 1020.9 hPa | 0 mm | - | 29 W/m² | - |
| 1777516333 | 17.78° C | 61% | 1020.8 hPa | 0 mm | - | 32 W/m² | - |
| 1777516028 | 17.78° C | 60% | 1021 hPa | 0 mm | - | 31 W/m² | - |
| 1777515726 | 17.78° C | 59% | 1020.8 hPa | 0 mm | - | 33 W/m² | - |
| 1777515422 | 17.78° C | 60% | 1021.1 hPa | 0 mm | - | 35 W/m² | - |
| 1777515119 | 17.78° C | 59% | 1020.9 hPa | 0 mm | - | 37 W/m² | - |
| 1777514815 | 17.78° C | 58% | 1021 hPa | 0 mm | - | 39 W/m² | - |
| 1777514513 | 18.33° C | 58% | 1021.1 hPa | 0 mm | - | 42 W/m² | - |
* Rain latest hour (hover to see other rain measurements)
** Current wind speed in m/s (hover to see current wind gust speed)